• In Latvia
  • List of Countries
  • For 7 days
  • Water Temperature
  • Satellite Maps
  • Weather Map
  • Weather Widgets
  • user-avatar
    Login

    Hourly Weather Innsbruck

    Today, 23 November, Thursday

    Time Temperature Precipitation Wind Pressure Humidity
    00:00 -6°C° 0 mm 3 mps 592 mmHg 80%
    01:00 -6°C° 0 mm 3 mps 592 mmHg 80%
    02:00 -6°C° 0 mm 3 mps 592 mmHg 81%
    03:00 -6°C° 0 mm 3 mps 591 mmHg 81%
    04:00 -6°C° 0 mm 3 mps 591 mmHg 81%
    05:00 -6°C° 0 mm 3 mps 591 mmHg 80%
    06:00 -7°C° 0 mm 3 mps 591 mmHg 80%
    07:00 -7°C° 0 mm 3 mps 591 mmHg 79%
    08:00 -4°C° 0 mm 2 mps 592 mmHg 78%
    09:00 -3°C° 0 mm 2 mps 593 mmHg 78%
    10:00 -1°C° 0 mm 2 mps 594 mmHg 77%
    11:00 +1°C° 0 mm 2 mps 594 mmHg 79%
    12:00 +3°C° 0 mm 1 mps 594 mmHg 81%
    13:00 +4°C° 0 mm 1 mps 595 mmHg 84%
    14:00 +3°C° 0 mm 1 mps 594 mmHg 82%
    15:00 +1°C° 0 mm 1 mps 594 mmHg 81%
    16:00 0°C° 0 mm 1 mps 593 mmHg 79%
    17:00 -1°C° 0 mm 1 mps 593 mmHg 78%
    18:00 -2°C° 0 mm 1 mps 593 mmHg 77%
    19:00 -2°C° 0 mm 1 mps 593 mmHg 76%
    20:00 -3°C° 0 mm 1 mps 594 mmHg 74%
    21:00 -3°C° 0 mm 1 mps 594 mmHg 73%
    22:00 -3°C° 0 mm 1 mps 594 mmHg 72%
    23:00 -3°C° 0 mm 1 mps 594 mmHg 71%

    Tomorrow, 24 November, Friday

    Time Temperature Precipitation Wind Pressure Humidity
    00:00 -3°C° 0 mm 1 mps 594 mmHg 71%
    01:00 -5°C° 0 mm 2 mps 594 mmHg 70%
    02:00 -6°C° 0 mm 2 mps 594 mmHg 71%
    03:00 -6°C° 0 mm 2 mps 594 mmHg 72%
    04:00 -6°C° 0 mm 2 mps 594 mmHg 73%
    05:00 -6°C° 0 mm 2 mps 594 mmHg 74%
    06:00 -6°C° 0 mm 2 mps 594 mmHg 75%
    07:00 -6°C° 0 mm 2 mps 593 mmHg 76%
    08:00 -5°C° 0 mm 2 mps 594 mmHg 76%
    09:00 -3°C° 0 mm 2 mps 595 mmHg 75%
    10:00 -1°C° 0 mm 2 mps 595 mmHg 75%
    11:00 +1°C° 0 mm 2 mps 595 mmHg 76%
    12:00 +2°C° 0 mm 2 mps 595 mmHg 76%
    13:00 +3°C° 0 mm 2 mps 595 mmHg 77%
    14:00 +2°C° 0 mm 2 mps 595 mmHg 79%
    15:00 -1°C° 0 mm 2 mps 594 mmHg 80%
    16:00 -2°C° 0 mm 2 mps 594 mmHg 81%
    17:00 -2°C° 0 mm 2 mps 594 mmHg 81%
    18:00 -3°C° 0 mm 2 mps 594 mmHg 81%
    19:00 -4°C° 0 mm 2 mps 594 mmHg 82%
    20:00 -4°C° 0 mm 2 mps 594 mmHg 82%
    21:00 -4°C° 0 mm 2 mps 594 mmHg 83%
    22:00 -4°C° 0 mm 2 mps 594 mmHg 84%
    23:00 -4°C° 0 mm 2 mps 593 mmHg 85%

    Day after tomorrow, 25 November, Saturday

    Time Temperature Precipitation Wind Pressure Humidity
    00:00 -4°C° 0 mm 2 mps 593 mmHg 87%
    01:00 -5°C° 0 mm 2 mps 593 mmHg 88%
    02:00 -5°C° 0 mm 2 mps 592 mmHg 89%
    03:00 -6°C° 0 mm 3 mps 591 mmHg 89%
    04:00 -6°C° 0 mm 3 mps 591 mmHg 90%
    05:00 -6°C° 0 mm 3 mps 591 mmHg 90%
    06:00 -6°C° 0 mm 3 mps 591 mmHg 90%
    07:00 -5°C° 0 mm 3 mps 591 mmHg 90%
    08:00 -4°C° 0 mm 3 mps 591 mmHg 89%
    09:00 -2°C° 0 mm 3 mps 591 mmHg 88%
    10:00 -2°C° 0 mm 3 mps 590 mmHg 87%
    11:00 -1°C° 0.2 mm 3 mps 591 mmHg 88%
    12:00 -1°C° 0.2 mm 3 mps 591 mmHg 88%
    13:00 +1°C° 0.2 mm 2 mps 591 mmHg 89%
    14:00 -1°C° 1.3 mm 2 mps 591 mmHg 91%
    15:00 0°C° 1.3 mm 1 mps 590 mmHg 94%
    16:00 0°C° 1.3 mm 1 mps 590 mmHg 96%
    17:00 -1°C° 0.8 mm 1 mps 590 mmHg 96%
    18:00 -1°C° 0.8 mm 1 mps 590 mmHg 96%
    19:00 -1°C° 0.8 mm 1 mps 590 mmHg 96%
    20:00 -4°C° 0.7 mm 2 mps 590 mmHg 96%
    21:00 -4°C° 0.7 mm 2 mps 591 mmHg 95%
    22:00 -6°C° 0.7 mm 3 mps 591 mmHg 94%
    23:00 -6°C° 0.3 mm 3 mps 591 mmHg 94%

    26 November, Sunday

    Time Temperature Precipitation Wind Pressure Humidity
    00:00 -7°C° 0.3 mm 3 mps 591 mmHg 94%
    01:00 -8°C° 0.3 mm 3 mps 592 mmHg 93%
    02:00 -9°C° 0.1 mm 3 mps 592 mmHg 93%
    03:00 -10°C° 0.1 mm 3 mps 592 mmHg 93%
    04:00 -12°C° 0.1 mm 3 mps 592 mmHg 93%
    05:00 -12°C° 0.1 mm 3 mps 592 mmHg 93%
    06:00 -13°C° 0.1 mm 3 mps 592 mmHg 93%
    07:00 -13°C° 0.1 mm 3 mps 592 mmHg 93%
    08:00 -13°C° 0 mm 3 mps 592 mmHg 90%
    09:00 -13°C° 0 mm 3 mps 593 mmHg 86%
    10:00 -13°C° 0 mm 3 mps 593 mmHg 83%
    11:00 -12°C° 0 mm 3 mps 593 mmHg 78%
    12:00 -12°C° 0 mm 3 mps 594 mmHg 73%
    13:00 -10°C° 0 mm 3 mps 594 mmHg 68%
    14:00 -12°C° 0 mm 3 mps 594 mmHg 72%
    15:00 -12°C° 0 mm 2 mps 594 mmHg 76%
    16:00 -13°C° 0 mm 2 mps 593 mmHg 81%
    17:00 -13°C° 0.1 mm 2 mps 593 mmHg 83%
    18:00 -14°C° 0.1 mm 2 mps 594 mmHg 85%
    19:00 -15°C° 0.1 mm 2 mps 594 mmHg 87%
    20:00 -15°C° 0 mm 2 mps 594 mmHg 86%
    21:00 -15°C° 0 mm 2 mps 594 mmHg 86%
    22:00 -15°C° 0 mm 2 mps 594 mmHg 86%
    23:00 -15°C° 0 mm 2 mps 594 mmHg 86%

    27 November, Monday

    Time Temperature Precipitation Wind Pressure Humidity
    00:00 -14°C° 0 mm 1 mps 594 mmHg 86%
    01:00 -14°C° 0 mm 1 mps 593 mmHg 87%
    02:00 -14°C° 0 mm 1 mps 593 mmHg 86%
    03:00 -14°C° 0 mm 1 mps 593 mmHg 86%
    04:00 -14°C° 0 mm 1 mps 593 mmHg 86%
    05:00 -14°C° 0 mm 1 mps 593 mmHg 85%
    06:00 -14°C° 0 mm 1 mps 593 mmHg 85%
    07:00 -14°C° 0 mm 1 mps 593 mmHg 84%
    08:00 -13°C° 0 mm 1 mps 594 mmHg 81%
    09:00 -11°C° 0 mm 1 mps 595 mmHg 77%
    10:00 -9°C° 0 mm 1 mps 596 mmHg 73%
    11:00 -8°C° 0 mm 1 mps 596 mmHg 70%
    12:00 -7°C° 0 mm 1 mps 596 mmHg 67%
    13:00 -6°C° 0 mm 1 mps 596 mmHg 64%
    14:00 -7°C° 0 mm 1 mps 595 mmHg 69%
    15:00 -9°C° 0 mm 1 mps 594 mmHg 74%
    16:00 -10°C° 0 mm 1 mps 593 mmHg 79%
    17:00 -11°C° 0 mm 1 mps 593 mmHg 79%
    18:00 -11°C° 0 mm 1 mps 593 mmHg 80%
    19:00 -12°C° 0 mm 1 mps 592 mmHg 80%
    20:00 -12°C° 0 mm 1 mps 592 mmHg 76%
    21:00 -12°C° 0 mm 1 mps 592 mmHg 71%
    22:00 -12°C° 0 mm 1 mps 592 mmHg 66%
    23:00 -13°C° 0 mm 2 mps 592 mmHg 64%

    28 November, Tuesday

    Time Temperature Precipitation Wind Pressure Humidity
    00:00 -13°C° 0 mm 2 mps 592 mmHg 62%
    01:00 -13°C° 0 mm 2 mps 592 mmHg 60%
    02:00 -13°C° 0 mm 2 mps 591 mmHg 59%
    03:00 -13°C° 0 mm 2 mps 591 mmHg 59%
    04:00 -13°C° 0 mm 2 mps 591 mmHg 58%
    05:00 -13°C° 0 mm 2 mps 591 mmHg 58%
    06:00 -13°C° 0 mm 2 mps 591 mmHg 58%
    07:00 -13°C° 0 mm 2 mps 590 mmHg 57%
    08:00 -10°C° 0 mm 2 mps 591 mmHg 58%
    09:00 -8°C° 0 mm 2 mps 591 mmHg 58%
    10:00 -7°C° 0 mm 2 mps 592 mmHg 58%
    11:00 -5°C° 0 mm 2 mps 591 mmHg 58%
    12:00 -4°C° 0 mm 2 mps 591 mmHg 57%
    13:00 -3°C° 0 mm 2 mps 591 mmHg 57%
    14:00 -5°C° 0 mm 2 mps 590 mmHg 62%
    15:00 -6°C° 0 mm 2 mps 589 mmHg 66%
    16:00 -7°C° 0 mm 2 mps 589 mmHg 71%
    17:00 -8°C° 0 mm 2 mps 588 mmHg 72%
    18:00 -9°C° 0 mm 2 mps 588 mmHg 73%
    19:00 -10°C° 0 mm 2 mps 588 mmHg 74%
    20:00 -10°C° 0 mm 2 mps 587 mmHg 75%
    21:00 -12°C° 0 mm 3 mps 587 mmHg 75%
    22:00 -12°C° 0 mm 3 mps 587 mmHg 76%
    23:00 -12°C° 0 mm 3 mps 587 mmHg 77%
    Show more